CAPE
357 140 125 112 123 118 110 119 33 2 0 0 0 0 12 66 26 27 42 37 43 59 21 41 44 34 53 67 36 29 10 24 23 161 163 87 112 83 383 551 439 347 359
102 72 59 81 82 71 33 18 0 0 0 0 5 52 52 1 9 46 58 42 33 29 3 11 28 32 40 59 49 40 27 54 154 245 102 34 113 39 131 133 190 279 145
32 41 58 56 51 28 10 0 0 0 0 3 46 23 24 0 0 11 4 16 22 20 8 4 12 38 45 33 75 38 40 59 78 131 296 39 18 35 82 58 65 32 53
0 30 42 60 71 28 5 1 0 0 0 0 13 46 5 0 0 9 23 20 17 20 37 27 32 41 55 64 52 58 56 34 27 118 32 53 28 31 29 18 8 28 18
0 10 30 60 71 44 13 0 0 0 0 4 9 8 0 0 0 0 6 46 24 25 26 30 36 28 37 39 22 32 37 19 37 7 139 24 16 4 12 16 3 4 2
6 47 41 67 48 5 1 0 0 1 13 15 6 0 0 0 0 0 34 76 50 44 25 36 22 23 26 24 31 18 24 16 73 4 3 2 0 0 0 2 3 0 0
19 25 46 51 28 23 0 0 2 26 28 22 4 0 0 0 0 2 41 47 24 29 23 7 25 29 37 22 13 13 0 0 15 8 1 3 12 0 0 0 0 0 0
34 15 28 40 32 3 0 0 13 35 33 17 0 0 0 0 0 45 22 6 2 6 11 24 26 8 19 31 41 30 14 3 11 23 12 29 9 0 3 2 1 1 5
58 39 40 24 16 0 0 0 2 20 24 13 0 0 0 11 20 32 2 0 0 1 7 20 20 19 27 24 3 7 2 0 1 0 5 27 16 13 11 6 1 0 0
68 57 30 24 28 13 0 0 0 14 23 0 0 0 0 27 0 0 3 31 1 5 11 7 17 18 40 6 19 2 13 7 0 0 3 25 8 32 10 4 9 2 0
78 48 20 40 29 4 0 0 8 35 27 13 0 0 0 19 26 5 9 5 0 7 3 15 17 11 3 13 4 19 21 5 7 7 25 11 6 2 9 8 28 26 3
105 69 25 49 56 54 1 0 4 30 31 18 0 0 0 4 22 3 13 4 0 3 18 7 14 5 0 2 14 9 7 7 11 6 11 3 2 6 0 5 4 1 0
95 92 48 123 125 106 54 7 18 37 38 26 15 1 0 1 3 8 24 10 0 49 34 16 6 0 0 0 0 12 9 5 9 6 4 4 4 0 1 0 0 0 0
95 87 99 159 128 147 29 15 34 47 46 30 11 0 0 1 14 8 15 0 0 3 9 7 0 0 13 3 0 0 1 4 0 1 0 6 0 0 0 0 0 0 0
74 110 124 180 100 188 25 0 28 26 24 5 8 0 0 3 3 1 5 1 0 6 20 0 0 0 0 0 0 0 8 3 0 0 1 1 1 0 0 0 0 0 0
40 117 164 209 183 181 69 9 30 35 28 6 0 0 0 0 0 0 4 0 1 18 15 4 1 0 0 0 0 0 0 0 0 0 0 0 0 0 0 0 0 0 0
8 98 200 229 236 187 108 73 84 4 55 103 9 2 0 0 2 8 2 0 0 4 18 16 30 0 0 0 0 0 0 0 0 0 0 0 0 0 0 0 0 0 0
0 64 185 230 232 207 115 113 100 15 10 74 95 47 0 0 2 3 3 0 0 0 7 16 19 4 0 0 0 0 0 0 0 0 0 0 0 0 0 0 0 0 0
0 34 154 241 217 233 137 99 90 58 131 102 73 119 5 0 1 6 3 0 0 0 0 0 2 0 1 0 2 0 0 0 0 0 0 0 0 0 0 0 0 0 0
0 27 109 210 200 251 188 101 84 134 203 15 75 133 0 0 0 0 0 0 0 0 0 0 0 0 0 0 0 2 1 1 0 0 0 0 0 0 0 0 0 0 0
0 12 69 156 177 233 227 191 93 82 145 4 55 172 14 0 0 0 0 0 0 0 0 0 0 0 0 0 0 0 3 1 0 0 0 0 0 0 0 0 0 0 0
0 1 29 75 135 212 236 194 164 39 18 8 1 103 182 42 1 0 0 0 0 0 0 0 0 0 0 0 0 0 0 0 0 0 0 0 0 0 0 0 0 0 0
207 32 8 31 68 126 171 166 152 100 84 82 45 15 40 153 115 33 0 0 0 0 0 0 0 0 0 0 0 0 0 0 0 0 0 0 0 0 0 0 0 0 0
506 331 151 14 18 44 86 133 142 101 64 82 120 115 67 46 34 57 60 94 77 16 0 0 0 0 0 0 0 0 0 0 0 0 0 0 0 0 0 0 0 0 0
443 374 308 272 97 25 0 16 41 80 83 50 47 68 109 111 83 65 56 19 7 7 7 9 0 0 0 0 0 0 0 0 0 0 0 0 0 0 0 0 3 16 26
344 257 284 342 389 224 95 43 42 82 83 66 42 4 0 0 0 3 5 7 13 13 12 9 0 0 0 0 0 0 0 0 0 0 0 0 0 0 0 1 7 16 15
CIN
-272 -310 -294 -293 -259 -245 -216 -168 -189 -70 0 0 0 0 -143 -62 -47 -39 -20 -8 -9 -15 -36 -33 -33 -36 -43 -56 -51 -24 -5 -68 -54 -4 -3 -9 -8 -20 -2 0 0 0 0
-312 -290 -328 -293 -290 -257 -261 -225 0 0 0 0 -157 -73 -80 -11 -54 -35 -17 -14 -16 -10 0 -72 -47 -30 -33 -51 -37 -47 -30 -76 -27 -2 -2 -1 -9 -4 -2 -11 -1 0 -1
-293 -322 -307 -304 -274 -267 -257 0 0 0 0 -115 -57 -89 -83 0 -3 -35 -4 -26 -25 -1 0 -13 -26 -42 -41 -32 -40 -32 -45 -41 -13 -3 0 0 -17 -1 0 -1 -3 0 -1
0 -308 -303 -260 -217 -234 -215 -122 0 0 0 0 -72 -57 -58 0 0 -8 -11 -22 -10 0 0 -6 -34 -66 -64 -56 -49 -29 -70 -46 -18 -1 -6 0 -5 0 -3 -5 -8 0 -4
0 -338 -294 -221 -180 -177 -202 0 0 0 0 -17 -23 -49 0 0 0 0 -19 -7 0 0 0 -11 -19 -31 -43 -38 -30 -24 -32 -30 -10 -26 -1 -20 -9 -13 -33 -21 -14 -1 0
-344 -238 -239 -191 -199 -233 -71 0 0 -10 -10 -25 -16 0 0 0 0 0 -8 -9 -4 -2 0 -1 -3 -23 -18 -40 -24 -17 -63 -67 -16 -24 -4 -8 0 -1 0 0 -2 0 0
-294 -260 -224 -228 -264 -194 0 0 -15 -26 -32 -21 -19 0 0 0 0 -6 -5 -4 -3 0 -5 -1 -1 -10 -15 -22 -17 -15 -1 0 -28 -70 -32 -89 -33 0 0 0 0 0 0
-244 -281 -257 -231 -214 -121 0 0 -19 -21 -24 -17 0 0 0 0 0 -1 -3 -2 -3 -5 -1 -1 0 0 -1 -8 -15 -10 -5 0 -15 -4 -4 -36 -16 -4 0 -1 0 0 0
-195 -211 -197 -247 -214 0 0 0 -16 -34 -21 -7 0 0 0 -6 -2 0 -1 0 0 0 -20 -3 -3 0 0 0 -3 -2 -3 0 -2 -2 -5 -1 -1 -3 -5 -1 0 0 0
-194 -153 -195 -234 -187 -154 0 0 0 -24 -11 -2 0 0 0 -10 0 0 0 0 0 0 -3 -10 -1 -1 0 -1 0 0 -14 -10 0 0 -2 0 -1 0 0 0 -2 -6 -1
-162 -133 -216 -202 -181 -144 0 0 -19 -12 -9 -19 0 0 0 -15 -2 -1 0 0 0 -1 0 -3 0 -2 -1 -2 0 -1 -5 -5 -4 -4 0 -3 -1 0 -1 -1 -9 -25 -13
-122 -115 -163 -114 -88 -65 -22 0 -19 -12 -12 -10 0 0 0 -10 -7 -1 0 0 0 0 -2 -1 -1 -4 -10 -1 0 0 -1 0 -1 0 0 0 -3 -1 0 -4 -7 -2 0
-120 -99 -94 -54 -48 -47 -46 -46 -51 -30 -13 -6 -2 0 0 0 0 -3 0 0 0 -1 0 -1 -2 0 0 0 0 0 0 0 0 0 0 0 -1 0 -2 -1 0 0 0
-120 -96 -100 -53 -69 -32 -69 -41 -35 -24 -5 0 -2 0 0 0 0 -3 -1 0 0 -2 -3 -2 0 0 0 0 0 -2 -3 -3 0 0 0 0 -1 -1 0 0 0 0 0
-127 -72 -86 -63 -109 -41 -86 -2 -28 -22 -6 -3 -5 -2 0 0 0 -5 0 0 0 -14 -3 -2 -1 0 0 0 0 0 0 -2 0 -3 -16 0 0 0 0 0 0 0 0
-157 -75 -77 -75 -121 -75 -120 -140 -67 -2 -1 0 0 0 0 0 0 -3 -8 0 -3 -4 -5 0 -2 0 0 0 0 0 0 0 -2 0 -1 0 0 0 0 0 0 0 0
-246 -100 -62 -76 -119 -114 -161 -159 -93 -6 -6 -44 -5 -2 0 0 0 -7 -2 0 0 -4 -4 0 0 0 0 0 0 0 0 0 0 0 0 0 0 0 0 0 0 0 0
0 -190 -86 -72 -130 -131 -194 -189 -139 -144 -53 -37 -30 -63 0 0 0 -4 0 0 0 0 0 -2 0 -3 0 0 0 0 0 0 0 0 0 0 0 0 0 0 0 0 0
0 -263 -141 -91 -88 -124 -182 -226 -204 -175 -76 -90 -116 -73 -160 0 -52 0 0 0 0 0 0 0 0 0 0 0 0 0 0 0 0 0 0 0 0 0 0 0 0 0 0
0 -276 -190 -115 -112 -117 -158 -223 -227 -179 -116 -210 -173 -152 0 0 0 0 0 0 0 0 0 0 0 0 0 0 0 0 0 0 0 0 0 0 0 0 0 0 0 0 0
0 -342 -255 -178 -146 -145 -153 -186 -246 -242 -171 -293 -252 -176 -317 0 0 0 0 0 0 0 0 0 0 0 0 0 0 0 0 0 0 0 0 0 0 0 0 0 0 0 0
0 -83 -334 -275 -204 -166 -152 -173 -204 -250 -283 -298 -68 -256 -202 -286 -66 0 0 0 0 0 0 0 0 0 0 0 0 0 0 0 0 0 0 0 0 0 0 0 0 0 0
-127 -151 -363 -350 -297 -239 -199 -178 -198 -227 -218 -203 -220 -279 -329 -236 -248 -298 -26 0 0 0 0 0 0 0 0 0 0 0 0 0 0 0 0 0 0 0 0 0 0 0 0
-77 -103 -146 -172 -381 -343 -289 -226 -195 -198 -206 -197 -170 -158 -172 -183 -221 -282 -209 -185 -195 -194 0 0 0 0 0 0 0 0 0 0 0 0 0 0 0 0 0 0 0 0 0
-77 -107 -81 -104 -160 -182 -7 -263 -238 -198 -186 -191 -188 -165 -130 -114 -124 -121 -130 -178 -225 -224 -208 -204 -23 0 0 0 0 0 0 0 0 0 0 0 0 0 0 0 -137 -177 -179
-114 -77 -82 -98 -84 -115 -150 -171 -93 -84 -105 -104 -142 -81 0 0 0 -66 -105 -105 -89 -153 -154 -179 -38 0 0 0 0 0 0 0 0 0 0 0 0 0 0 -72 -240 -234 -222
Wind_Speed
18 21 24 19 19 23 25 24 nan nan nan nan nan nan nan nan nan nan nan nan nan nan nan nan nan nan nan nan nan nan nan nan nan 21 26 nan 25 nan 25 27 24 22 22
19 nan nan nan nan nan nan nan nan nan nan nan nan nan nan nan nan nan nan nan nan nan nan nan nan nan nan nan nan nan nan nan 17 18 20 nan 25 nan 26 27 24 18 18
nan nan nan nan nan nan nan nan nan nan nan nan nan nan nan nan nan nan nan nan nan nan nan nan nan nan nan nan nan nan nan nan nan 15 18 nan nan nan nan nan nan nan nan
nan nan nan nan nan nan nan nan nan nan nan nan nan nan nan nan nan nan nan nan nan nan nan nan nan nan nan nan nan nan nan nan nan 18 nan nan nan nan nan nan nan nan nan
nan nan nan nan nan nan nan nan nan nan nan nan nan nan nan nan nan nan nan nan nan nan nan nan nan nan nan nan nan nan nan nan nan nan 16 nan nan nan nan nan nan nan nan
nan nan nan nan nan nan nan nan nan nan nan nan nan nan nan nan nan nan nan nan nan nan nan nan nan nan nan nan nan nan nan nan nan nan nan nan nan nan nan nan nan nan nan
nan nan nan nan nan nan nan nan nan nan nan nan nan nan nan nan nan nan nan nan nan nan nan nan nan nan nan nan nan nan nan nan nan nan nan nan nan nan nan nan nan nan nan
nan nan nan nan nan nan nan nan nan nan nan nan nan nan nan nan nan nan nan nan nan nan nan nan nan nan nan nan nan nan nan nan nan nan nan nan nan nan nan nan nan nan nan
nan nan nan nan nan nan nan nan nan nan nan nan nan nan nan nan nan nan nan nan nan nan nan nan nan nan nan nan nan nan nan nan nan nan nan nan nan nan nan nan nan nan nan
nan nan nan nan nan nan nan nan nan nan nan nan nan nan nan nan nan nan nan nan nan nan nan nan nan nan nan nan nan nan nan nan nan nan nan nan nan nan nan nan nan nan nan
nan nan nan nan nan nan nan nan nan nan nan nan nan nan nan nan nan nan nan nan nan nan nan nan nan nan nan nan nan nan nan nan nan nan nan nan nan nan nan nan nan nan nan
4 nan nan nan nan nan nan nan nan nan nan nan nan nan nan nan nan nan nan nan nan nan nan nan nan nan nan nan nan nan nan nan nan nan nan nan nan nan nan nan nan nan nan
nan nan nan 5 4 8 nan nan nan nan nan nan nan nan nan nan nan nan nan nan nan nan nan nan nan nan nan nan nan nan nan nan nan nan nan nan nan nan nan nan nan nan nan
nan nan nan 3 3 5 nan nan nan nan nan nan nan nan nan nan nan nan nan nan nan nan nan nan nan nan nan nan nan nan nan nan nan nan nan nan nan nan nan nan nan nan nan
nan 1 1 0 2 5 nan nan nan nan nan nan nan nan nan nan nan nan nan nan nan nan nan nan nan nan nan nan nan nan nan nan nan nan nan nan nan nan nan nan nan nan nan
nan 7 5 2 5 8 nan nan nan nan nan nan nan nan nan nan nan nan nan nan nan nan nan nan nan nan nan nan nan nan nan nan nan nan nan nan nan nan nan nan nan nan nan
nan nan 8 6 10 13 13 nan nan nan nan 17 nan nan nan nan nan nan nan nan nan nan nan nan nan nan nan nan nan nan nan nan nan nan nan nan nan nan nan nan nan nan nan
nan nan 9 11 11 11 13 13 13 nan nan nan nan nan nan nan nan nan nan nan nan nan nan nan nan nan nan nan nan nan nan nan nan nan nan nan nan nan nan nan nan nan nan
nan nan 12 11 12 9 9 nan nan nan 18 16 nan 18 nan nan nan nan nan nan nan nan nan nan nan nan nan nan nan nan nan nan nan nan nan nan nan nan nan nan nan nan nan
nan nan 9 11 12 10 8 7 nan 13 14 nan nan 8 nan nan nan nan nan nan nan nan nan nan nan nan nan nan nan nan nan nan nan nan nan nan nan nan nan nan nan nan nan
nan nan nan 13 11 11 9 6 nan nan 9 nan nan 9 nan nan nan nan nan nan nan nan nan nan nan nan nan nan nan nan nan nan nan nan nan nan nan nan nan nan nan nan nan
nan nan nan nan 15 13 12 11 10 nan nan nan nan 4 2 nan nan nan nan nan nan nan nan nan nan nan nan nan nan nan nan nan nan nan nan nan nan nan nan nan nan nan nan
13 nan nan nan nan 16 16 14 13 11 nan nan nan nan nan 2 1 nan nan nan nan nan nan nan nan nan nan nan nan nan nan nan nan nan nan nan nan nan nan nan nan nan nan
20 15 8 nan nan nan nan 14 14 14 nan nan 13 12 nan nan nan nan nan nan nan nan nan nan nan nan nan nan nan nan nan nan nan nan nan nan nan nan nan nan nan nan nan
33 25 22 22 nan nan nan nan nan nan nan nan nan nan 15 14 nan nan nan nan nan nan nan nan nan nan nan nan nan nan nan nan nan nan nan nan nan nan nan nan nan nan nan
43 39 37 35 34 31 nan nan nan nan nan nan nan nan nan nan nan nan nan nan nan nan nan nan nan nan nan nan nan nan nan nan nan nan nan nan nan nan nan nan nan nan nan
Wind_Direction
281 283 286 283 290 292 295 299 nan nan nan nan nan nan nan nan nan nan nan nan nan nan nan nan nan nan nan nan nan nan nan nan nan 201 189 nan 191 nan 197 204 207 218 225
286 nan nan nan nan nan nan nan nan nan nan nan nan nan nan nan nan nan nan nan nan nan nan nan nan nan nan nan nan nan nan nan 201 205 190 nan 187 nan 202 205 196 207 209
nan nan nan nan nan nan nan nan nan nan nan nan nan nan nan nan nan nan nan nan nan nan nan nan nan nan nan nan nan nan nan nan nan 197 190 nan nan nan nan nan nan nan nan
nan nan nan nan nan nan nan nan nan nan nan nan nan nan nan nan nan nan nan nan nan nan nan nan nan nan nan nan nan nan nan nan nan 192 nan nan nan nan nan nan nan nan nan
nan nan nan nan nan nan nan nan nan nan nan nan nan nan nan nan nan nan nan nan nan nan nan nan nan nan nan nan nan nan nan nan nan nan 192 nan nan nan nan nan nan nan nan
nan nan nan nan nan nan nan nan nan nan nan nan nan nan nan nan nan nan nan nan nan nan nan nan nan nan nan nan nan nan nan nan nan nan nan nan nan nan nan nan nan nan nan
nan nan nan nan nan nan nan nan nan nan nan nan nan nan nan nan nan nan nan nan nan nan nan nan nan nan nan nan nan nan nan nan nan nan nan nan nan nan nan nan nan nan nan
nan nan nan nan nan nan nan nan nan nan nan nan nan nan nan nan nan nan nan nan nan nan nan nan nan nan nan nan nan nan nan nan nan nan nan nan nan nan nan nan nan nan nan
nan nan nan nan nan nan nan nan nan nan nan nan nan nan nan nan nan nan nan nan nan nan nan nan nan nan nan nan nan nan nan nan nan nan nan nan nan nan nan nan nan nan nan
nan nan nan nan nan nan nan nan nan nan nan nan nan nan nan nan nan nan nan nan nan nan nan nan nan nan nan nan nan nan nan nan nan nan nan nan nan nan nan nan nan nan nan
nan nan nan nan nan nan nan nan nan nan nan nan nan nan nan nan nan nan nan nan nan nan nan nan nan nan nan nan nan nan nan nan nan nan nan nan nan nan nan nan nan nan nan
272 nan nan nan nan nan nan nan nan nan nan nan nan nan nan nan nan nan nan nan nan nan nan nan nan nan nan nan nan nan nan nan nan nan nan nan nan nan nan nan nan nan nan
nan nan nan 302 328 335 nan nan nan nan nan nan nan nan nan nan nan nan nan nan nan nan nan nan nan nan nan nan nan nan nan nan nan nan nan nan nan nan nan nan nan nan nan
nan nan nan 317 331 346 nan nan nan nan nan nan nan nan nan nan nan nan nan nan nan nan nan nan nan nan nan nan nan nan nan nan nan nan nan nan nan nan nan nan nan nan nan
nan 95 72 140 40 42 nan nan nan nan nan nan nan nan nan nan nan nan nan nan nan nan nan nan nan nan nan nan nan nan nan nan nan nan nan nan nan nan nan nan nan nan nan
nan 111 98 121 110 93 nan nan nan nan nan nan nan nan nan nan nan nan nan nan nan nan nan nan nan nan nan nan nan nan nan nan nan nan nan nan nan nan nan nan nan nan nan
nan nan 128 133 119 105 91 nan nan nan nan 172 nan nan nan nan nan nan nan nan nan nan nan nan nan nan nan nan nan nan nan nan nan nan nan nan nan nan nan nan nan nan nan
nan nan 123 133 130 116 96 83 72 nan nan nan nan nan nan nan nan nan nan nan nan nan nan nan nan nan nan nan nan nan nan nan nan nan nan nan nan nan nan nan nan nan nan
nan nan 148 155 155 144 119 nan nan nan 90 101 nan 140 nan nan nan nan nan nan nan nan nan nan nan nan nan nan nan nan nan nan nan nan nan nan nan nan nan nan nan nan nan
nan nan 177 171 182 177 158 127 nan 99 99 nan nan 114 nan nan nan nan nan nan nan nan nan nan nan nan nan nan nan nan nan nan nan nan nan nan nan nan nan nan nan nan nan
nan nan nan 195 193 189 195 181 nan nan 108 nan nan 76 nan nan nan nan nan nan nan nan nan nan nan nan nan nan nan nan nan nan nan nan nan nan nan nan nan nan nan nan nan
nan nan nan nan 206 212 202 201 212 nan nan nan nan 134 56 nan nan nan nan nan nan nan nan nan nan nan nan nan nan nan nan nan nan nan nan nan nan nan nan nan nan nan nan
207 nan nan nan nan 222 221 223 224 223 nan nan nan nan nan 210 253 nan nan nan nan nan nan nan nan nan nan nan nan nan nan nan nan nan nan nan nan nan nan nan nan nan nan
214 207 220 nan nan nan nan 233 233 234 nan nan 234 233 nan nan nan nan nan nan nan nan nan nan nan nan nan nan nan nan nan nan nan nan nan nan nan nan nan nan nan nan nan
219 214 201 214 nan nan nan nan nan nan nan nan nan nan 238 239 nan nan nan nan nan nan nan nan nan nan nan nan nan nan nan nan nan nan nan nan nan nan nan nan nan nan nan
218 220 217 218 221 224 nan nan nan nan nan nan nan nan nan nan nan nan nan nan nan nan nan nan nan nan nan nan nan nan nan nan nan nan nan nan nan nan nan nan nan nan nan